Location: Unspecified
(33.6682°S, 0.0000°E)
Time: 11:37:31
(UTC+00:00)

Tiros 1 despin weight - Pass Details

Date: 22 June 2019
Orbit: 594 x 642 km, 48.2° (Epoch: 17 August)

Event Time Altitude Azimuth Distance (km) Brightness Sun altitude
Rises 10:07:21 0° 314° (NW) 2,896 ? 26.7°
Reaches altitude 10° 10:09:38 10° 316° (NW) 2,003 ? 26.9°
Maximum altitude 10:14:15 75° 41° (NE) 663 ? 27.4°
Drops below altitude 10° 10:18:58 10° 125° (SE) 2,046 ? 27.9°
Sets 10:21:20 0° 126° (SE) 2,965 ? 28.1°
